Winston-Salem, NC

10:24 PM EDT on October 19, 2017 (GMT -0400)
Smith Reynolds

Weather History for KINT - November, 2013

Change the Weather History Date:

Wednesday, November 13, 2013

  Actual Average Record
Temperature  
Mean Temperature 36 °F -  
Max Temperature 46 °F 57 °F 80 °F (1989)
Min Temperature 27 °F 39 °F 17 °F (1976)
Degree Days  
Heating Degree Days 28    
Moisture  
Dew Point 14 °F    
Average Humidity 47    
Maximum Humidity 66    
Minimum Humidity 23    
Precipitation  
Precipitation 0.00 in - - ()
Sea Level Pressure  
Sea Level Pressure 30.50 in    
Wind  
Wind Speed 4 mph (NNW)    
Max Wind Speed 8 mph    
Max Gust Speed -    
Visibility 10 miles    
Events      
Averages and records for this station are not official NWS values.
T = Trace of Precipitation, MM = Missing Value Source: NWS Daily Summary

Daily Weather History Graph

Daily Weather History Graph

Search for Another Location

Airport or City:

Trip Planner

Search our weather history database for the weather conditions in past years. The results will help you decide how hot, cold, wet, or windy it might be!

Date:

Astronomy

Nov. 13, 2013 Rise Set
Actual Time 6:55 AM EST 5:14 PM EST
Civil Twilight 6:28 AM EST 5:41 PM EST
Nautical Twilight 5:57 AM EST 6:12 PM EST
Astronomical Twilight 5:27 AM EST 6:42 PM EST
Moon 2:54 PM EST (11/13) 2:54 AM EST (11/13)
Length of Visible Light 11h 12m
Length of Day
10h 18m
Waxing Gibbous, 84% of the Moon is Illuminated
Nov 13
Waxing Gibbous
Nov 17
Full
Nov 25
Last Quarter
Dec 2
New
Dec 9
First Quarter

Hourly Weather History & Observations

Time (EST) Temp. Windchill Dew Point Humidity Pressure Visibility Wind Dir Wind Speed Gust Speed Precip Events Conditions
12:54 AM 28.0 °F 20.8 °F 16.0 °F 61% 30.46 in 10.0 mi NNW 6.9 mph - N/A   Clear
1:54 AM 27.0 °F 20.5 °F 16.0 °F 63% 30.47 in 10.0 mi NNW 5.8 mph - N/A   Clear
2:54 AM 27.0 °F 21.6 °F 16.0 °F 63% 30.48 in 10.0 mi NNW 4.6 mph - N/A   Clear
3:54 AM 28.0 °F - 16.0 °F 61% 30.47 in 10.0 mi Calm Calm - N/A   Clear
4:54 AM 27.0 °F 21.6 °F 16.0 °F 63% 30.49 in 10.0 mi NW 4.6 mph - N/A   Clear
5:54 AM 28.0 °F 22.8 °F 15.1 °F 58% 30.50 in 10.0 mi NW 4.6 mph - N/A   Clear
6:54 AM 27.0 °F 21.6 °F 15.1 °F 61% 30.51 in 10.0 mi NNW 4.6 mph - N/A   Clear
7:54 AM 27.0 °F - 17.1 °F 66% 30.54 in 10.0 mi Calm Calm - N/A   Clear
8:54 AM 32.0 °F 25.6 °F 15.1 °F 50% 30.56 in 10.0 mi Variable 6.9 mph - N/A   Clear
9:54 AM 34.0 °F 28.0 °F 15.1 °F 46% 30.56 in 10.0 mi NNE 6.9 mph - N/A   Clear
10:54 AM 37.0 °F 33.3 °F 14.0 °F 39% 30.56 in 10.0 mi NNE 4.6 mph - N/A   Clear
11:54 AM 39.0 °F 33.4 °F 12.9 °F 34% 30.54 in 10.0 mi North 8.1 mph - N/A   Clear
12:54 PM 42.1 °F 39.2 °F 12.9 °F 31% 30.50 in 10.0 mi Variable 4.6 mph - N/A   Clear
1:54 PM 43.0 °F 39.5 °F 12.0 °F 28% 30.49 in 10.0 mi NW 5.8 mph - N/A   Clear
2:54 PM 46.0 °F - 12.0 °F 25% 30.47 in 10.0 mi Calm Calm - N/A   Clear
3:54 PM 46.9 °F - 10.9 °F 23% 30.47 in 10.0 mi North 5.8 mph - N/A   Clear
4:54 PM 45.0 °F - 10.9 °F 25% 30.47 in 10.0 mi Calm Calm - N/A   Clear
5:54 PM 39.0 °F - 15.1 °F 38% 30.49 in 10.0 mi Calm Calm - N/A   Clear
6:54 PM 41.0 °F 36.4 °F 12.9 °F 32% 30.50 in 10.0 mi NNW 6.9 mph - N/A   Clear
7:54 PM 37.9 °F - 12.9 °F 36% 30.51 in 10.0 mi Calm Calm - N/A   Clear
8:54 PM 35.1 °F - 14.0 °F 42% 30.51 in 10.0 mi Calm Calm - N/A   Clear
9:54 PM 30.9 °F - 15.1 °F 52% 30.50 in 10.0 mi Calm Calm - N/A   Clear
10:54 PM 28.0 °F - 16.0 °F 61% 30.48 in 10.0 mi Calm Calm - N/A   Clear
11:54 PM 28.0 °F - 16.0 °F 61% 30.49 in 10.0 mi Calm Calm - N/A   Clear